Regional Weather Roundup
Issued by NWS

Home | Current Version | Previous Version | Graphics & Text | Print | Product List | Glossary On
Versions: 1 2 3 4 5 6 7 8 9 10 11 12 13 14 15 16 17 18 19 20 21 22 23 24 25 26 27 28 29 30 31 32 33 34 35 36 37 38 39 40 41 42 43 44 45 46 47 48 49 50
047
ASUS43 KBIS 261210
RWRND

NORTH DAKOTA REGIONAL WEATHER ROUNDUP
NATIONAL WEATHER SERVICE BISMARCK ND
700 AM CDT WED JUL 26 2017

NOTE: "FAIR" INDICATES FEW OR NO CLOUDS BELOW 12,000 FEET WITH NO
SIGNIFICANT WEATHER AND/OR OBSTRUCTIONS TO VISIBILITY.


NDZ001>003-009>011-017-261300-
NORTHWEST NORTH DAKOTA

CITY           SKY/WX    TMP DP  RH WIND       PRES   REMARKS
WILLISTON      CLEAR     56  49  77 CALM      30.14R
6HR MIN TEMP:  55; 6HR MAX TEMP:  64;

MINOT          CLEAR     60  54  80 W5        30.11S
MINOT AFB      CLEAR     53  52  94 W3        30.10R
$$

NDZ018>021-031>035-040>046-261300-
SOUTHWEST NORTH DAKOTA

CITY           SKY/WX    TMP DP  RH WIND       PRES   REMARKS
BISMARCK       CLEAR     62  56  80 CALM      30.09R
6HR MIN TEMP:  57; 6HR MAX TEMP:  68;

DICKINSON      CLEAR     55  50  83 SE5       30.12R
GARRISON         N/A     55  53  93 N8        30.11S
6HR MIN TEMP:  54; 6HR MAX TEMP:  64;

HETTINGER ARPT CLOUDY    61  56  83 CALM      30.14R
$$

NDZ004>008-012>016-024-026-027-054-261300-
NORTHEAST NORTH DAKOTA

CITY           SKY/WX    TMP DP  RH WIND       PRES   REMARKS
GRAND FORKS    CLEAR     63  60  90 NW7       30.00R
GRND FRKS AFB  CLEAR     63  58  84 NW9       30.01S
DEVILS LAKE    PTCLDY    62  59  90 NW8       30.07S
$$

NDZ022-023-025-028>030-036>039-047>053-261300-
SOUTHEAST NORTH DAKOTA

CITY           SKY/WX    TMP DP  RH WIND       PRES   REMARKS
FARGO          PTCLDY    62  58  86 W6        30.01R
6HR MIN TEMP:  59; 6HR MAX TEMP:  64;

JAMESTOWN      CLEAR     61  57  87 NW5       30.05R
$$





USA.gov is the U.S. government's official web portal to all federal, state and local government web resources and services.